W9KOZ-7 Weather Reports


Display with metric or nautical units.
time (UTC)temp
F
wind
direction
speed
MPH
gust
MPH
rain 1hr
in
rain 24hr
in
rain mn
in
humidity
%
barometer
mb
20260906213342 75 133 5.0 12.0 0.00 0.00 0.00 44 1027.7
20260906211857 74 141 6.0 12.0 0.00 0.00 0.00 44 1027.8
20260906210857 74 168 6.0 15.0 0.00 0.00 0.00 46 1027.8
20260906205857 74 127 6.0 14.0 0.00 0.00 0.00 47 1027.8
20260906204852 73 150 6.0 13.0 0.00 0.00 0.00 51 1027.9
20260906203850 73 160 7.0 18.0 0.00 0.00 0.00 51 1028.0
20260906202851 74 160 6.0 14.0 0.00 0.00 0.00 51 1028.0
20260906201849 73 165 6.0 13.0 0.00 0.00 0.00 51 1028.2
20260906201344 73 122 6.0 15.0 0.00 0.00 0.00 51 1028.3
20260906195849 73 181 8.0 16.0 0.00 0.00 0.00 51 1028.3
20260906194849 73 141 5.0 15.0 0.00 0.00 0.00 50 1028.4
20260906193849 73 247 7.0 14.0 0.00 0.00 0.00 51 1028.3
20260906192849 72 147 7.0 14.0 0.00 0.00 0.00 49 1028.6
20260906191849 72 119 6.0 11.0 0.00 0.00 0.00 48 1028.7
20260906190848 72 133 6.0 13.0 0.00 0.00 0.00 49 1028.8
20260906190343 71 162 8.0 14.0 0.00 0.00 0.00 50 1028.7
20260906184849 72 141 6.0 12.0 0.00 0.00 0.00 52 1029.1
20260906183848 72 81 6.0 14.0 0.00 0.00 0.00 49 1029.1
20260906182849 72 178 4.0 10.0 0.00 0.00 0.00 48 1029.3
20260906181846 71 125 6.0 11.0 0.00 0.00 0.00 49 1029.3
20260906180847 71 152 6.0 10.0 0.00 0.00 0.00 49 1029.6
20260906175847 71 118 6.0 11.0 0.00 0.00 0.00 51 1029.6
20260906174846 71 131 5.0 11.0 0.00 0.00 0.00 49 1029.6
20260906173847 71 131 5.0 11.0 0.00 0.00 0.00 49 1030.0
20260906172847 70 218 5.0 12.0 0.00 0.00 0.00 49 1030.1
20260906171847 71 133 3.0 9.0 0.00 0.00 0.00 49 1030.0
20260906171337 70 134 4.0 12.0 0.00 0.00 0.00 48 1030.0
20260906165847 70 146 3.0 7.0 0.00 0.00 0.00 49 1030.0
20260906164846 69 89 4.0 9.0 0.00 0.00 0.00 49 1030.0
20260906163847 69 152 3.0 8.0 0.00 0.00 0.00 48 1030.0
20260906162846 69 185 4.0 9.0 0.00 0.00 0.00 51 1030.1
20260906161846 69 130 4.0 10.0 0.00 0.00 0.00 50 1030.0
20260906160847 69 147 5.0 12.0 0.00 0.00 0.00 51 1029.8
20260906160330 69 139 5.0 9.0 0.00 0.00 0.00 51 1029.6
20260906155327 69 129 5.0 9.0 0.00 0.00 0.00 50 1029.5
20260906154313 70 159 4.0 9.0 0.00 0.00 0.00 48 1029.2
20260906152838 71 140 1.0 6.0 0.00 0.00 0.00 48 1029.3
20260906151836 69 224 0.0 2.0 0.00 0.00 0.00 53 1029.2
20260906150835 67 359 0.0 1.0 0.00 0.00 0.00 57 1029.2
20260906150314 65 350 0.0 2.0 0.00 0.00 0.00 62 1029.2
20260906144835 63 345 0.0 3.0 0.00 0.00 0.00 63 1028.9
20260906143835 61 324 0.0 0.0 0.00 0.00 0.00 68 1029.3
20260906142836 59 347 0.0 2.0 0.00 0.00 0.00 70 1029.2
20260906141835 57 359 0.0 2.0 0.00 0.00 0.00 73 1029.2
20260906140833 56 359 1.0 2.0 0.00 0.00 0.00 77 1029.1
20260906135833 54 312 0.0 2.0 0.00 0.00 0.00 79 1028.8
20260906135316 52 303 0.0 0.0 0.00 0.00 0.00 82 1028.7
20260906133833 51 231 0.0 0.0 0.00 0.00 0.00 83 1028.8
20260906132833 50 273 0.0 0.0 0.00 0.00 0.00 83 1028.8
20260906131835 50 272 0.0 0.0 0.00 0.00 0.00 84 1028.8
20260906130833 50 273 0.0 0.0 0.00 0.00 0.00 83 1028.7
20260906130318 49 272 0.0 0.0 0.00 0.00 0.00 83 1028.7
20260906124833 49 272 0.0 0.0 0.00 0.00 0.00 83 1028.6
20260906124320 50 271 0.0 0.0 0.00 0.00 0.00 83 1028.6
20260906122833 50 273 0.0 0.0 0.00 0.00 0.00 82 1028.6
20260906121833 50 272 0.0 0.0 0.00 0.00 0.00 82 1028.6
20260906121751 50 275 0.0 0.0 0.00 0.00 0.00 82 1028.4
20260906115834 50 268 0.0 1.0 0.00 0.00 0.00 82 1028.4
20260906114836 50 269 0.0 0.0 0.00 0.00 0.00 82 1028.3
20260906113833 50 265 0.0 0.0 0.00 0.00 0.00 81 1028.3
20260906112832 51 271 0.0 0.0 0.00 0.00 0.00 81 1028.3
20260906111828 51 274 0.0 0.0 0.00 0.00 0.00 81 1028.2
20260906110827 51 273 0.0 0.0 0.00 0.00 0.00 80 1028.0
20260906105827 52 279 0.0 0.0 0.00 0.00 0.00 80 1028.0
20260906104827 52 280 0.0 0.0 0.00 0.00 0.00 80 1027.9
20260906103827 52 282 0.0 0.0 0.00 0.00 0.00 80 1028.0
20260906102827 52 283 0.0 0.0 0.00 0.00 0.00 80 1028.2
20260906101827 52 283 0.0 0.0 0.00 0.00 0.00 80 1028.2
20260906100827 52 281 0.0 0.0 0.00 0.00 0.00 80 1028.2
20260906100302 52 282 0.0 0.0 0.00 0.00 0.00 80 1028.3
20260906094819 52 284 0.0 2.0 0.00 0.00 0.00 80 1028.2
20260906093819 52 304 0.0 0.0 0.00 0.00 0.00 80 1028.3
20260906092819 52 359 0.0 0.0 0.00 0.00 0.00 80 1028.2
20260906091818 52 303 0.0 0.0 0.00 0.00 0.00 79 1028.2
20260906091251 52 304 0.0 0.0 0.00 0.00 0.00 79 1028.0
20260906085816 52 359 0.0 0.0 0.00 0.00 0.00 80 1028.2
20260906084817 52 304 0.0 0.0 0.00 0.00 0.00 79 1028.2
20260906083817 51 303 0.0 0.0 0.00 0.00 0.00 78 1028.2
20260906083301 51 304 0.0 0.0 0.00 0.00 0.00 79 1028.2
20260906081817 51 303 0.0 0.0 0.00 0.00 0.00 79 1028.3
20260906080816 52 304 0.0 0.0 0.00 0.00 0.00 77 1028.3
20260906075817 52 304 0.0 0.0 0.00 0.00 0.00 78 1028.4
20260906074818 52 305 0.0 0.0 0.00 0.00 0.00 77 1028.3
20260906073817 52 305 0.0 0.0 0.00 0.00 0.00 77 1028.2
20260906072816 53 305 0.0 0.0 0.00 0.00 0.00 77 1028.2
20260906071817 52 306 0.0 0.0 0.00 0.00 0.00 77 1028.3
20260906070814 52 306 0.0 0.0 0.00 0.00 0.00 78 1028.4
20260906065815 52 305 0.0 0.0 0.00 0.00 0.00 78 1028.3
20260906064813 52 306 0.0 2.0 0.00 0.00 0.00 79 1028.3
20260906063813 52 305 0.0 0.0 0.00 0.00 0.00 78 1028.3
20260906062812 53 304 0.0 0.0 0.00 0.00 0.00 78 1028.3
20260906061809 53 246 0.0 0.0 0.00 0.00 0.00 77 1028.4
20260906060807 53 237 0.0 2.0 0.00 0.00 0.00 77 1028.4
20260906060247 53 252 0.0 1.0 0.00 0.00 0.00 77 1028.6
20260906055239 53 36 0.0 1.0 0.00 0.00 0.00 77 1028.4
20260906054726 53 359 0.0 0.0 0.00 0.00 0.00 77 1028.4
20260906052804 53 359 0.0 0.0 0.00 0.00 0.00 77 1028.4
20260906052240 54 244 0.0 0.0 0.00 0.00 0.00 77 1028.6
20260906050804 54 247 0.0 0.0 0.00 0.00 0.00 77 1028.7
20260906045804 54 245 0.0 1.0 0.00 0.00 0.00 77 1028.8
20260906044800 54 251 0.0 1.0 0.00 0.00 0.00 77 1028.8
20260906044240 54 283 0.0 0.0 0.00 0.00 0.00 76 1028.9
20260906042801 55 280 0.0 0.0 0.00 0.00 0.00 76 1028.9
20260906041800 55 268 0.0 0.0 0.00 0.00 0.00 75 1029.1
20260906041243 55 278 0.0 0.0 0.00 0.00 0.00 74 1028.9
20260906035800 55 272 0.0 0.0 0.00 0.00 0.00 72 1028.9
20260906034800 56 264 1.0 3.0 0.00 0.00 0.00 71 1028.9
20260906033800 56 238 0.0 2.0 0.00 0.00 0.00 72 1028.9
20260906032800 56 251 0.0 2.0 0.00 0.00 0.00 70 1029.1
20260906031757 56 258 0.0 0.0 0.00 0.00 0.00 72 1029.2
20260906031236 56 250 0.0 2.0 0.00 0.00 0.00 69 1029.1
20260906025756 56 221 0.0 0.0 0.00 0.00 0.00 71 1028.7
20260906024756 56 225 0.0 0.0 0.00 0.00 0.00 71 1028.6
20260906023756 56 134 1.0 3.0 0.00 0.00 0.00 70 1028.4
20260906022756 57 164 0.0 0.0 0.00 0.00 0.00 69 1028.3
20260906022226 57 164 0.0 0.0 0.00 0.00 0.00 67 1028.3
20260906020756 58 359 0.0 0.0 0.00 0.00 0.00 68 1028.0
20260906020234 59 29 0.0 0.0 0.00 0.00 0.00 66 1027.9
20260906014756 60 16 0.0 0.0 0.00 0.00 0.00 65 1028.0
20260906013756 61 19 0.0 0.0 0.00 0.00 0.00 64 1027.9
20260906012756 63 18 0.0 0.0 0.00 0.00 0.00 60 1028.0
20260906012237 64 18 0.0 0.0 0.00 0.00 0.00 61 1028.0
20260906010756 65 21 0.0 0.0 0.00 0.00 0.00 59 1028.0
20260906005755 67 338 0.0 0.0 0.00 0.00 0.00 56 1027.9
20260906004756 69 311 0.0 3.0 0.00 0.00 0.00 55 1028.3
20260906003756 71 350 0.0 3.0 0.00 0.00 0.00 48 1028.3
20260906002755 73 271 0.0 2.0 0.00 0.00 0.00 46 1028.3
20260906001755 74 318 1.0 4.0 0.00 0.00 0.00 39 1028.3
20260906000755 75 144 2.0 9.0 0.00 0.00 0.00 38 1028.3
20260905235755 75 133 0.0 7.0 0.00 0.00 0.00 38 1028.2
20260905234755 75 229 1.0 3.0 0.00 0.00 0.00 38 1028.3
20260905233756 75 164 2.0 5.0 0.00 0.00 0.00 37 1028.2
20260905232756 76 295 0.0 2.0 0.00 0.00 0.00 36 1028.0
20260905231755 76 210 1.0 5.0 0.00 0.00 0.00 37 1028.2
20260905230755 74 176 1.0 3.0 0.00 0.00 0.00 42 1028.2
20260905230724 73 174 0.0 0.0 0.00 0.00 0.00 43 1028.3
20260905224756 72 147 0.0 1.0 0.00 0.00 0.00 45 1028.3
20260905223755 73 146 0.0 3.0 0.00 0.00 0.00 45 1028.4
20260905222755 75 199 1.0 4.0 0.00 0.00 0.00 42 1028.6
20260905221755 76 310 1.0 7.0 0.00 0.00 0.00 38 1028.3
20260905220755 77 87 1.0 4.0 0.00 0.00 0.00 37 1028.3
20260905215755 77 75 2.0 8.0 0.00 0.00 0.00 38 1028.3
20260905214756 76 156 2.0 6.0 0.00 0.00 0.00 41 1028.4
20260905214231 74 192 2.0 6.0 0.00 0.00 0.00 41 1028.4